This is the latest recevied weather packets stored in our database for station/object SV7RNH. If no packets are shown the sender has not sent any weather packets the latest 10 day(s).
| Time | Temp. | Humidity | Pressure | Rain* | Wind** | Luminosity | Snow |
|---|---|---|---|---|---|---|---|
| 1777810503 | 19.44° C | 10% | 1019.7 hPa | 0 mm | - | - | - |
| 1777810204 | 20.56° C | 10% | 1019.6 hPa | 0 mm | - | - | - |
| 1777809904 | 21.11° C | 10% | 1019.6 hPa | 0 mm | - | - | - |
| 1777809603 | 20° C | 10% | 1019.7 hPa | 0 mm | - | - | - |
| 1777809303 | 19.44° C | 10% | 1019.8 hPa | 0 mm | - | - | - |
| 1777809004 | 19.44° C | 10% | 1019.7 hPa | 0 mm | - | - | - |
| 1777808704 | 19.44° C | 10% | 1019.7 hPa | 0 mm | - | - | - |
| 1777808403 | 18.89° C | 10% | 1019.8 hPa | 0 mm | - | - | - |
| 1777808103 | 19.44° C | 10% | 1019.9 hPa | 0 mm | - | - | - |
| 1777807803 | 20° C | 10% | 1019.9 hPa | 0 mm | - | - | - |
| 1777807504 | 20.56° C | 10% | 1019.8 hPa | 0 mm | - | - | - |
| 1777807203 | 20.56° C | 10% | 1019.9 hPa | 0 mm | - | - | - |
| 1777806903 | 20° C | 10% | 1019.9 hPa | 0 mm | - | - | - |
| 1777806604 | 19.44° C | 10% | 1020.2 hPa | 0 mm | - | - | - |
| 1777806304 | 18.33° C | 10% | 1020 hPa | 0 mm | - | - | - |
| 1777806004 | 19.44° C | 10% | 1020.1 hPa | 0 mm | - | - | - |
| 1777805703 | 20° C | 10% | 1020.2 hPa | 0 mm | - | - | - |
| 1777805403 | 20.56° C | 10% | 1020.2 hPa | 0 mm | - | - | - |
| 1777805104 | 20.56° C | 10% | 1020.3 hPa | 0 mm | - | - | - |
| 1777804804 | 20.56° C | 10% | 1020.2 hPa | 0 mm | - | - | - |
| 1777804503 | 20.56° C | 10% | 1020.3 hPa | 0 mm | - | - | - |
| 1777804203 | 20.56° C | 11% | 1020.4 hPa | 0 mm | - | - | - |
| 1777803904 | 20° C | 10% | 1020.4 hPa | 0 mm | - | - | - |
| 1777803604 | 20° C | 12% | 1020.4 hPa | 0 mm | - | - | - |
| 1777803303 | 18.89° C | 14% | 1020.5 hPa | 0 mm | - | - | - |
* Rain latest hour (hover to see other rain measurements)
** Current wind speed in m/s (hover to see current wind gust speed)